• In Czech Republic
  • List of Countries
  • For 7 days
  • Water Temperature
  • Satellite Maps
  • Weather Map
  • Weather Widgets
  • user-avatar
    Login

    Hourly Weather Albany

    Today, 27 July, Thursday

    Time Temperature Precipitation Wind Pressure Humidity
    00:00 +9°C° 0 mm 5 mps 760 mmHg 79%
    01:00 +8°C° 0 mm 4 mps 760 mmHg 81%
    02:00 +9°C° 0 mm 3 mps 759 mmHg 85%
    03:00 +7°C° 0 mm 4 mps 759 mmHg 85%
    04:00 +7°C° 0 mm 4 mps 759 mmHg 86%
    05:00 +7°C° 0 mm 4 mps 758 mmHg 86%
    06:00 +7°C° 0 mm 5 mps 758 mmHg 84%
    07:00 +8°C° 0 mm 5 mps 758 mmHg 81%
    08:00 +8°C° 0 mm 6 mps 758 mmHg 76%
    09:00 +10°C° 0 mm 7 mps 757 mmHg 73%
    10:00 +12°C° 0 mm 7 mps 756 mmHg 70%
    11:00 +15°C° 0 mm 8 mps 756 mmHg 66%
    12:00 +16°C° 0 mm 8 mps 755 mmHg 68%
    13:00 +16°C° 0 mm 9 mps 754 mmHg 69%
    14:00 +17°C° 0 mm 9 mps 753 mmHg 70%
    15:00 +17°C° 0 mm 9 mps 752 mmHg 71%
    16:00 +17°C° 0 mm 9 mps 751 mmHg 71%
    17:00 +17°C° 0 mm 9 mps 750 mmHg 72%
    18:00 +17°C° 0 mm 10 mps 750 mmHg 73%
    19:00 +17°C° 0 mm 10 mps 750 mmHg 74%
    20:00 +16°C° 0 mm 10 mps 749 mmHg 75%
    21:00 +16°C° 0.7 mm 11 mps 749 mmHg 77%
    22:00 +16°C° 0.7 mm 11 mps 749 mmHg 79%
    23:00 +14°C° 0.7 mm 11 mps 748 mmHg 81%

    Tomorrow, 28 July, Friday

    Time Temperature Precipitation Wind Pressure Humidity
    00:00 +14°C° 1.3 mm 10 mps 748 mmHg 83%
    01:00 +13°C° 1.3 mm 9 mps 748 mmHg 86%
    02:00 +12°C° 1.3 mm 8 mps 748 mmHg 89%
    03:00 +12°C° 0.1 mm 9 mps 748 mmHg 85%
    04:00 +12°C° 0.1 mm 9 mps 748 mmHg 81%
    05:00 +12°C° 0.1 mm 10 mps 747 mmHg 77%
    06:00 +11°C° 0.1 mm 10 mps 748 mmHg 76%
    07:00 +11°C° 0.1 mm 10 mps 748 mmHg 75%
    08:00 +11°C° 0.1 mm 10 mps 748 mmHg 74%
    09:00 +12°C° 0.2 mm 11 mps 748 mmHg 70%
    10:00 +12°C° 0.2 mm 12 mps 748 mmHg 66%
    11:00 +13°C° 0.2 mm 12 mps 748 mmHg 62%
    12:00 +13°C° 0.3 mm 12 mps 748 mmHg 64%
    13:00 +12°C° 0.3 mm 11 mps 748 mmHg 66%
    14:00 +12°C° 0.3 mm 11 mps 748 mmHg 68%
    15:00 +11°C° 0.3 mm 11 mps 748 mmHg 68%
    16:00 +11°C° 0.3 mm 10 mps 749 mmHg 67%
    17:00 +9°C° 0.3 mm 10 mps 749 mmHg 67%
    18:00 +9°C° 0.3 mm 10 mps 750 mmHg 69%
    19:00 +8°C° 0.3 mm 10 mps 750 mmHg 71%
    20:00 +7°C° 0.3 mm 10 mps 751 mmHg 73%
    21:00 +7°C° 0.5 mm 10 mps 751 mmHg 75%
    22:00 +7°C° 0.5 mm 9 mps 751 mmHg 77%
    23:00 +6°C° 0.5 mm 9 mps 752 mmHg 79%

    Day after tomorrow, 29 July, Saturday

    Time Temperature Precipitation Wind Pressure Humidity
    00:00 +6°C° 0.6 mm 9 mps 752 mmHg 80%
    01:00 +6°C° 0.6 mm 9 mps 752 mmHg 81%
    02:00 +6°C° 0.6 mm 10 mps 752 mmHg 82%
    03:00 +6°C° 0.6 mm 10 mps 753 mmHg 81%
    04:00 +6°C° 0.6 mm 10 mps 753 mmHg 81%
    05:00 +6°C° 0.6 mm 10 mps 753 mmHg 81%
    06:00 +6°C° 0.3 mm 10 mps 754 mmHg 79%
    07:00 +7°C° 0.3 mm 10 mps 754 mmHg 78%
    08:00 +7°C° 0.3 mm 10 mps 755 mmHg 76%
    09:00 +8°C° 0.2 mm 10 mps 755 mmHg 71%
    10:00 +9°C° 0.2 mm 10 mps 755 mmHg 65%
    11:00 +12°C° 0.2 mm 11 mps 756 mmHg 60%
    12:00 +12°C° 0.2 mm 11 mps 755 mmHg 60%
    13:00 +12°C° 0.2 mm 10 mps 755 mmHg 60%
    14:00 +13°C° 0.2 mm 10 mps 754 mmHg 59%
    15:00 +12°C° 0.4 mm 10 mps 754 mmHg 64%
    16:00 +11°C° 0.4 mm 10 mps 754 mmHg 69%
    17:00 +11°C° 0.4 mm 10 mps 754 mmHg 74%
    18:00 +9°C° 0.7 mm 10 mps 755 mmHg 75%
    19:00 +9°C° 0.7 mm 10 mps 755 mmHg 76%
    20:00 +9°C° 0.7 mm 10 mps 756 mmHg 77%
    21:00 +8°C° 0.2 mm 10 mps 756 mmHg 76%
    22:00 +8°C° 0.2 mm 10 mps 756 mmHg 76%
    23:00 +8°C° 0.2 mm 11 mps 757 mmHg 75%

    30 July, Sunday

    Time Temperature Precipitation Wind Pressure Humidity
    00:00 +7°C° 0.6 mm 11 mps 757 mmHg 77%
    01:00 +7°C° 0.6 mm 11 mps 757 mmHg 79%
    02:00 +7°C° 0.6 mm 11 mps 757 mmHg 81%
    03:00 +7°C° 0.7 mm 11 mps 757 mmHg 81%
    04:00 +7°C° 0.7 mm 10 mps 757 mmHg 81%
    05:00 +7°C° 0.7 mm 10 mps 757 mmHg 81%
    06:00 +7°C° 0.6 mm 9 mps 758 mmHg 82%
    07:00 +9°C° 0.6 mm 8 mps 759 mmHg 82%
    08:00 +9°C° 0.6 mm 8 mps 760 mmHg 83%
    09:00 +10°C° 0.3 mm 7 mps 761 mmHg 79%
    10:00 +11°C° 0.3 mm 6 mps 761 mmHg 76%
    11:00 +13°C° 0.3 mm 5 mps 762 mmHg 72%
    12:00 +14°C° 0.1 mm 4 mps 761 mmHg 70%
    13:00 +14°C° 0.1 mm 3 mps 761 mmHg 67%
    14:00 +14°C° 0.1 mm 3 mps 761 mmHg 65%
    15:00 +14°C° 0.1 mm 2 mps 761 mmHg 68%
    16:00 +14°C° 0.1 mm 2 mps 761 mmHg 71%
    17:00 +13°C° 0.1 mm 2 mps 761 mmHg 75%
    18:00 +12°C° 0 mm 2 mps 762 mmHg 78%
    19:00 +10°C° 0 mm 3 mps 762 mmHg 80%
    20:00 +9°C° 0 mm 3 mps 762 mmHg 83%
    21:00 +8°C° 0 mm 4 mps 762 mmHg 84%
    22:00 +7°C° 0 mm 4 mps 762 mmHg 85%
    23:00 +7°C° 0 mm 4 mps 761 mmHg 85%

    31 July, Monday

    Time Temperature Precipitation Wind Pressure Humidity
    00:00 +7°C° 0 mm 5 mps 761 mmHg 85%
    01:00 +7°C° 0 mm 5 mps 760 mmHg 85%
    02:00 +6°C° 0 mm 5 mps 759 mmHg 84%
    03:00 +7°C° 0 mm 6 mps 759 mmHg 85%
    04:00 +7°C° 0 mm 6 mps 758 mmHg 85%
    05:00 +6°C° 0 mm 7 mps 758 mmHg 85%
    06:00 +7°C° 0 mm 8 mps 757 mmHg 83%
    07:00 +7°C° 0 mm 8 mps 757 mmHg 82%
    08:00 +8°C° 0 mm 9 mps 756 mmHg 80%
    09:00 +10°C° 0 mm 9 mps 756 mmHg 76%
    10:00 +12°C° 0 mm 9 mps 755 mmHg 72%
    11:00 +13°C° 0 mm 10 mps 754 mmHg 67%
    12:00 +12°C° 1.6 mm 9 mps 754 mmHg 73%
    13:00 +12°C° 1.6 mm 9 mps 753 mmHg 79%
    14:00 +11°C° 1.6 mm 9 mps 752 mmHg 85%
    15:00 +10°C° 2.1 mm 9 mps 753 mmHg 86%
    16:00 +8°C° 2.1 mm 9 mps 754 mmHg 87%
    17:00 +7°C° 2.1 mm 10 mps 754 mmHg 88%
    18:00 +7°C° 0.7 mm 9 mps 755 mmHg 86%
    19:00 +7°C° 0.7 mm 9 mps 756 mmHg 85%
    20:00 +7°C° 0.7 mm 8 mps 757 mmHg 83%
    21:00 +7°C° 0.3 mm 8 mps 758 mmHg 81%
    22:00 +6°C° 0.3 mm 8 mps 758 mmHg 80%
    23:00 +6°C° 0.3 mm 8 mps 758 mmHg 78%

    1 August, Tuesday

    Time Temperature Precipitation Wind Pressure Humidity
    00:00 +6°C° 0.5 mm 9 mps 759 mmHg 80%
    01:00 +6°C° 0.5 mm 9 mps 759 mmHg 82%
    02:00 +6°C° 0.5 mm 9 mps 759 mmHg 85%
    03:00 +6°C° 0.9 mm 9 mps 760 mmHg 84%
    04:00 +6°C° 0.9 mm 10 mps 760 mmHg 83%
    05:00 +7°C° 0.9 mm 10 mps 761 mmHg 82%
    06:00 +6°C° 0.4 mm 10 mps 762 mmHg 81%
    07:00 +6°C° 0.4 mm 9 mps 763 mmHg 80%
    08:00 +6°C° 0.4 mm 9 mps 763 mmHg 80%
    09:00 +7°C° 0.3 mm 9 mps 764 mmHg 75%
    10:00 +8°C° 0.3 mm 10 mps 764 mmHg 71%
    11:00 +9°C° 0.3 mm 10 mps 765 mmHg 66%
    12:00 +10°C° 0.1 mm 9 mps 765 mmHg 64%
    13:00 +10°C° 0.1 mm 9 mps 764 mmHg 62%
    14:00 +10°C° 0.1 mm 9 mps 764 mmHg 60%
    15:00 +10°C° 0.1 mm 8 mps 765 mmHg 62%
    16:00 +9°C° 0.1 mm 8 mps 765 mmHg 65%
    17:00 +9°C° 0.1 mm 7 mps 766 mmHg 67%
    18:00 +8°C° 0.1 mm 7 mps 766 mmHg 69%
    19:00 +8°C° 0.1 mm 7 mps 767 mmHg 70%
    20:00 +8°C° 0.1 mm 6 mps 767 mmHg 72%
    21:00 +8°C° 0 mm 6 mps 767 mmHg 71%
    22:00 +8°C° 0 mm 6 mps 767 mmHg 70%
    23:00 +8°C° 0 mm 5 mps 767 mmHg 70%
    Show more